User: anonymous   Login
Location: Banios
(43.0451°N, 0.2335°E)
Time: 01:54:57
(UTC+00:00)
Language:

Cosmos 1953 Rocket - Orbit

View from above orbital plane
View from above orbital plane
View from above satellite
View from above satellite

Ground track
Ground track

The orbit data is extracted from the following two-line orbital elements,

1 19211U 88050B   21107.35180351  .00000072  00000-0  58859-5 0  9991
2 19211  82.5261 332.7439 0021785 179.2791 180.8459 14.83106315753237
Epoch (UTC): 17 April 2021 08:26:35
Eccentricity: 0.0021785
inclination: 82.5261°
perigee height: 604 km
apogee height: 635 km
right ascension of ascending node: 332.7439°
argument of perigee: 179.2791°
revolutions per day: 14.83106315
mean anomaly at epoch: 180.8459°
orbit number at epoch: 75323

The dashed part of the orbit path shows where the satellite is in the earth's shadow,  

DLR